Location: Newark
(25.3833°N, 97.4000°E)
Time: 13:57:00
(UTC+00:00)

First-Move - Pass Details

Date: 21 February 2020
Orbit: 576 x 669 km, 97.6° (Epoch: 08 April)

Event Time Altitude Azimuth Distance (km) Brightness Sun altitude
Rises 22:19:38 0° 38° (NE) 3,005 ? -23.4°
Reaches altitude 10° 22:23:01 10° 65° (ENE) 2,080 ? -22.7°
Maximum altitude 22:25:13 13° 95° (E) 1,848 ? -22.2°
Drops below altitude 10° 22:27:25 10° 124° (SE) 2,057 ? -21.7°
Sets 22:30:43 0° 151° (SSE) 2,946 ? -20.9°
